星链-32937 (STARLINK-32937)

导读

STARLINK-32937是美国发射的星链卫星,星链是SpaceX打造的低轨卫星互联网星座项目。该星于2025年3月3日发射入轨,归入近地轨道的星链卫星星座组网,旨在补充完善全球卫星互联网通信覆盖能力,为全球更多无网络覆盖、通信基础设施匮乏的区域提供低成本互联网接入服务,进一步扩充星链星座规模。

基本信息
目录编号:
63148
目录名称:
STARLINK-32937
国际标识:
2025-043S
轨道中心:
EARTH
卫星名称:
星链-32937
卫星全名:
星链-32937 (STARLINK-32937)
卫星状态:
在轨 (已飞行550 天)
发射日期:
2025-03-03 UTC
国别 :
美国 (US)
星等 :
--
轨道信息
数据来源 国际轨道数据
星历时间: 2026-09-04T06:29:10+0800
13小时前
查看轨道信息
半长轴: 6860.998km
偏心率: 0.0001052
轨道倾角: 43.001°
近地点辐角 240.831°
升交点赤经 89.527°
平近点角 119.244°
近地点: 482.139km
远地点: 483.583km
周期: 94.263分钟
每日圈数: 15.276429
详细信息
固有亮度:
5
最大亮度:
2.5
卫星平台:
Starlink V1.0
覆盖范围:
全球
运营商:
太空探索技术公司
运营商所在国:
美国
制造商(研发单位):
太空探索技术公司
制造商所在国:
美国
使用方式:
暂无
卫星简介
Starlink 计划是 SpaceX 推出的全球卫星互联网项目,通过发射低轨道卫星,为全球尤其是偏远地区提供高速、低延迟的互联网服务。自 2019 年起,Starlink 已部署数千颗卫星,旨在缩小全球数字鸿沟,推动互联网普及。该项目还为军事、航空等行业提供通信支持,带来广泛经济效益。
2D轨道图
3D轨道图
轨道高度分析图
轨道倾角分析图
轨道综合分析图
查看轨道综合分析图
交会数据列表
事件ID 空间交会对象 最接近时刻(TCA) 交会距离 交会风险概率(CRP) 交会风险指数(CRI) 操作
CDM_260905-175106-314806-652821
2026-09-05T
17:51:14+0000
0.372 km
远距离
2.670545E-4 高风险 0.84
CDM_260906-053706-314806-652821
2026-09-06T
05:37:22+0000
1.499 km
极远距离
4.387406E-6 低风险 0.48
CDM_260906-040306-314806-652821
2026-09-06T
04:03:13+0000
1.981 km
极远距离
1.975636E-6 低风险 0.41
CDM_260905-101904-939006-314821
2026-09-05T
10:19:42+0000
1.717 km
极远距离
1.88239E-6 低风险 0.4
CDM_260905-161706-314806-652821
2026-09-05T
16:17:05+0000
2.220 km
极远距离
1.519378E-6 低风险 0.39
CDM_260906-053605-984206-314821
2026-09-06T
05:36:55+0000
2.478 km
极远距离
1.247841E-6 低风险 0.37
CDM_260906-000705-984206-314821
2026-09-06T
00:07:23+0000
2.636 km
极远距离
1.127774E-6 低风险 0.36
CDM_260906-014105-984206-314821
2026-09-06T
01:41:32+0000
2.799 km
极远距离
1.034952E-6 低风险 0.35
CDM_260905-192506-314806-652821
2026-09-05T
19:25:23+0000
2.855 km
极远距离
9.948545E-7 极低风险 0.35